Weather in Jalandhar

India     31°19′22″N   75°34′57″E
temp.,
°C
wind,
m/s
gust,
m/s
humid.,
%
clouds,
%
prec.,
mm/h
press.,
hPa
HPBL,
m
23 january, sat
sat2323:30+14ese4841100 0.0 1012154
02:30+13ese51344100 0.0 1010268
05:30+13se51441100 0.0 1009319
08:30+14se6163867 0.0 1010464
11:30+21sse8133037 0.0 10101116
14:30+21sse8124153 0.4 10081057
17:30+19se7134427 0.7 1008537
20:30+13w25495 0.6 1011104
24 january, sun
sun2423:30+8sw12583 0.6 101332
02:30+8wnw11790 0.0 101325
05:30+7nw12850 0.0 101431
08:30+9wnw11830 0.0 101643
11:30+17nnw22520 0.0 1016502
14:30+20nw22350 0.0 10141235
17:30+16nne23450 0.0 101435
20:30+12n12570 0.0 101625
25 january, mon
mon2523:30+10wnw22600 0.0 101729
02:30+9nw22570 0.0 101629
05:30+8wnw22610 0.0 101530
08:30+11nw12590 0.0 101742
11:30+18wnw21450 0.0 1016435
14:30+22w12390 0.0 10131116
17:30+18nne11510 0.0 101323
20:30+13se11670 0.0 101523
26 january, tue
tue2623:30+10wnw11660 0.0 101627
02:30+10n11740 0.0 101526
05:30+9wnw12790 0.0 101427
08:30+11nw11720 0.0 101630
11:30+19nw11450 0.0 1015453
14:30+22w13340 0.0 10121575
17:30+18ene12430 0.0 101225
20:30+13ene12620 0.0 101427
27 january, wed
wed2723:30+10nw11700 0.0 101526
02:30+10n11740 0.0 101326
05:30+9nnw11760 0.0 101322
08:30+11w11700 0.0 101530
11:30+19w11430 0.0 1014504
14:30+22sw02320 0.0 10121810
17:30+18e12410 0.0 101132
20:30+12w01560 0.0 101423